Location: Catenanuova
(37.5690°N, 14.6870°E)
Time: 10:38:20
(UTC+02:00)

Hubble Space Telescope - Pass Details

Date: 31 May 2024
Orbit: 511 x 514 km, 28.5° (Epoch: 13 June)

Event Time Altitude Azimuth Distance (km) Brightness Sun altitude
Rises 21:51:02 0° 253° (WSW) 2,611 4.7 -15.8°
Reaches altitude 10° 21:53:47 10° 235° (SW) 1,723 3.5 -16.1°
Enters shadow 21:56:28 18° 192° (SSW) 1,279 2.4 -16.5°
